When you browse on this site, cookies collect data to enhance your experience and personalize the content and advertising you see.
Visit our Privacy Policy to learn more. By continuing to use the site, you agree to this use of cookies and data.
  • în România
  • Lista ţărilor
  • Pe 7 zile
  • Temperatura apei
  • Meteo pe hartă
  • Widget-uri
  • user-avatar
    Intrare

    Meteo pe oră la As-Salt

    Astăzi, 24 August, Sâmbătă

    Timp Temperatura Precipitaţii Vânt Presiune Umiditate
    00:00 +24°C° 0 mm 1 m/s 708 mmHg 69%
    01:00 +23°C° 0 mm 1 m/s 708 mmHg 72%
    02:00 +23°C° 0 mm 1 m/s 708 mmHg 76%
    03:00 +22°C° 0 mm 1 m/s 708 mmHg 79%
    04:00 +22°C° 0 mm 1 m/s 708 mmHg 81%
    05:00 +22°C° 0 mm 1 m/s 708 mmHg 84%
    06:00 +23°C° 0 mm 1 m/s 709 mmHg 76%
    07:00 +25°C° 0 mm 1 m/s 709 mmHg 69%
    08:00 +27°C° 0 mm 2 m/s 709 mmHg 61%
    09:00 +29°C° 0 mm 2 m/s 710 mmHg 54%
    10:00 +31°C° 0 mm 3 m/s 710 mmHg 46%
    11:00 +34°C° 0 mm 3 m/s 710 mmHg 39%
    12:00 +36°C° 0 mm 3 m/s 710 mmHg 34%
    13:00 +37°C° 0 mm 4 m/s 710 mmHg 30%
    14:00 +38°C° 0 mm 4 m/s 709 mmHg 26%
    15:00 +37°C° 0 mm 4 m/s 709 mmHg 29%
    16:00 +36°C° 0 mm 5 m/s 709 mmHg 32%
    17:00 +35°C° 0 mm 5 m/s 709 mmHg 36%
    18:00 +32°C° 0 mm 4 m/s 709 mmHg 44%
    19:00 +29°C° 0 mm 3 m/s 709 mmHg 51%
    20:00 +26°C° 0 mm 2 m/s 709 mmHg 59%
    21:00 +25°C° 0 mm 1 m/s 709 mmHg 59%
    22:00 +25°C° 0 mm 1 m/s 709 mmHg 59%
    23:00 +24°C° 0 mm 1 m/s 709 mmHg 59%

    Mâine, 25 August, Duminică

    Timp Temperatura Precipitaţii Vânt Presiune Umiditate
    00:00 +24°C° 0 mm 1 m/s 709 mmHg 61%
    01:00 +23°C° 0 mm 1 m/s 708 mmHg 63%
    02:00 +23°C° 0 mm 1 m/s 708 mmHg 66%
    03:00 +23°C° 0 mm 1 m/s 708 mmHg 67%
    04:00 +22°C° 0 mm 1 m/s 709 mmHg 69%
    05:00 +22°C° 0 mm 1 m/s 709 mmHg 71%
    06:00 +24°C° 0 mm 1 m/s 709 mmHg 63%
    07:00 +27°C° 0 mm 1 m/s 710 mmHg 55%
    08:00 +29°C° 0 mm 2 m/s 710 mmHg 46%
    09:00 +31°C° 0 mm 2 m/s 710 mmHg 41%
    10:00 +33°C° 0 mm 3 m/s 711 mmHg 35%
    11:00 +35°C° 0 mm 3 m/s 711 mmHg 29%
    12:00 +36°C° 0 mm 3 m/s 711 mmHg 27%
    13:00 +37°C° 0 mm 4 m/s 710 mmHg 24%
    14:00 +40°C° 0 mm 4 m/s 710 mmHg 22%
    15:00 +37°C° 0 mm 5 m/s 710 mmHg 25%
    16:00 +36°C° 0 mm 5 m/s 710 mmHg 28%
    17:00 +35°C° 0 mm 6 m/s 709 mmHg 32%
    18:00 +32°C° 0 mm 5 m/s 709 mmHg 40%
    19:00 +28°C° 0 mm 3 m/s 709 mmHg 48%
    20:00 +26°C° 0 mm 2 m/s 709 mmHg 57%
    21:00 +25°C° 0 mm 2 m/s 709 mmHg 57%
    22:00 +24°C° 0 mm 1 m/s 709 mmHg 58%
    23:00 +23°C° 0 mm 1 m/s 709 mmHg 59%

    Poimâine, 26 August, Luni

    Timp Temperatura Precipitaţii Vânt Presiune Umiditate
    00:00 +23°C° 0 mm 1 m/s 709 mmHg 58%
    01:00 +23°C° 0 mm 1 m/s 709 mmHg 57%
    02:00 +23°C° 0 mm 1 m/s 709 mmHg 56%
    03:00 +22°C° 0 mm 1 m/s 709 mmHg 58%
    04:00 +22°C° 0 mm 1 m/s 709 mmHg 59%
    05:00 +22°C° 0 mm 1 m/s 709 mmHg 61%
    06:00 +24°C° 0 mm 1 m/s 710 mmHg 54%
    07:00 +27°C° 0 mm 2 m/s 710 mmHg 46%
    08:00 +29°C° 0 mm 2 m/s 711 mmHg 38%
    09:00 +31°C° 0 mm 2 m/s 711 mmHg 34%
    10:00 +34°C° 0 mm 3 m/s 711 mmHg 30%
    11:00 +35°C° 0 mm 3 m/s 711 mmHg 26%
    12:00 +36°C° 0 mm 3 m/s 711 mmHg 24%
    13:00 +37°C° 0 mm 4 m/s 710 mmHg 23%
    14:00 +38°C° 0 mm 4 m/s 710 mmHg 22%
    15:00 +37°C° 0 mm 5 m/s 710 mmHg 25%
    16:00 +36°C° 0 mm 5 m/s 710 mmHg 29%
    17:00 +35°C° 0 mm 6 m/s 709 mmHg 32%
    18:00 +32°C° 0 mm 5 m/s 710 mmHg 39%
    19:00 +28°C° 0 mm 4 m/s 710 mmHg 47%
    20:00 +26°C° 0 mm 2 m/s 710 mmHg 54%
    21:00 +25°C° 0 mm 2 m/s 710 mmHg 54%
    22:00 +24°C° 0 mm 1 m/s 710 mmHg 55%
    23:00 +23°C° 0 mm 1 m/s 709 mmHg 55%

    27 August, Marţi

    Timp Temperatura Precipitaţii Vânt Presiune Umiditate
    00:00 +23°C° 0 mm 1 m/s 709 mmHg 54%
    01:00 +23°C° 0 mm 1 m/s 709 mmHg 53%
    02:00 +22°C° 0 mm 1 m/s 709 mmHg 52%
    03:00 +22°C° 0 mm 1 m/s 709 mmHg 55%
    04:00 +21°C° 0 mm 1 m/s 709 mmHg 57%
    05:00 +21°C° 0 mm 1 m/s 709 mmHg 59%
    06:00 +23°C° 0 mm 1 m/s 710 mmHg 52%
    07:00 +26°C° 0 mm 2 m/s 710 mmHg 45%
    08:00 +28°C° 0 mm 2 m/s 710 mmHg 39%
    09:00 +30°C° 0 mm 2 m/s 711 mmHg 34%
    10:00 +32°C° 0 mm 2 m/s 711 mmHg 30%
    11:00 +35°C° 0 mm 3 m/s 711 mmHg 25%
    12:00 +36°C° 0 mm 3 m/s 711 mmHg 24%
    13:00 +37°C° 0 mm 3 m/s 710 mmHg 23%
    14:00 +38°C° 0 mm 4 m/s 710 mmHg 21%
    15:00 +36°C° 0 mm 4 m/s 710 mmHg 26%
    16:00 +35°C° 0 mm 5 m/s 709 mmHg 31%
    17:00 +34°C° 0 mm 6 m/s 709 mmHg 37%
    18:00 +30°C° 0 mm 5 m/s 709 mmHg 45%
    19:00 +27°C° 0 mm 3 m/s 709 mmHg 53%
    20:00 +25°C° 0 mm 2 m/s 709 mmHg 61%
    21:00 +24°C° 0 mm 2 m/s 709 mmHg 61%
    22:00 +23°C° 0 mm 2 m/s 709 mmHg 61%
    23:00 +23°C° 0 mm 1 m/s 709 mmHg 62%

    28 August, Miercuri

    Timp Temperatura Precipitaţii Vânt Presiune Umiditate
    00:00 +22°C° 0 mm 1 m/s 709 mmHg 67%
    01:00 +22°C° 0 mm 1 m/s 709 mmHg 72%
    02:00 +21°C° 0 mm 1 m/s 709 mmHg 77%
    03:00 +21°C° 0 mm 1 m/s 709 mmHg 81%
    04:00 +21°C° 0 mm 1 m/s 709 mmHg 84%
    05:00 +20°C° 0 mm 1 m/s 708 mmHg 88%
    06:00 +22°C° 0 mm 1 m/s 709 mmHg 80%
    07:00 +24°C° 0 mm 1 m/s 709 mmHg 72%
    08:00 +26°C° 0 mm 2 m/s 710 mmHg 64%
    09:00 +28°C° 0 mm 2 m/s 710 mmHg 56%
    10:00 +30°C° 0 mm 2 m/s 710 mmHg 49%
    11:00 +33°C° 0 mm 3 m/s 709 mmHg 41%
    12:00 +34°C° 0 mm 3 m/s 709 mmHg 37%
    13:00 +36°C° 0 mm 4 m/s 709 mmHg 32%
    14:00 +37°C° 0 mm 4 m/s 709 mmHg 28%
    15:00 +36°C° 0 mm 5 m/s 709 mmHg 33%
    16:00 +34°C° 0 mm 5 m/s 708 mmHg 38%
    17:00 +33°C° 0 mm 6 m/s 708 mmHg 42%
    18:00 +29°C° 0 mm 5 m/s 708 mmHg 53%
    19:00 +27°C° 0 mm 3 m/s 708 mmHg 64%
    20:00 +25°C° 0 mm 2 m/s 708 mmHg 74%
    21:00 +24°C° 0 mm 2 m/s 708 mmHg 76%
    22:00 +24°C° 0 mm 2 m/s 709 mmHg 78%
    23:00 +23°C° 0 mm 2 m/s 709 mmHg 80%

    29 August, Joi

    Timp Temperatura Precipitaţii Vânt Presiune Umiditate
    00:00 +23°C° 0 mm 2 m/s 708 mmHg 81%
    01:00 +22°C° 0 mm 1 m/s 708 mmHg 82%
    02:00 +22°C° 0 mm 1 m/s 708 mmHg 83%
    03:00 +22°C° 0 mm 1 m/s 708 mmHg 83%
    04:00 +21°C° 0 mm 1 m/s 708 mmHg 83%
    05:00 +21°C° 0 mm 1 m/s 708 mmHg 83%
    06:00 +23°C° 0 mm 1 m/s 709 mmHg 74%
    07:00 +25°C° 0 mm 1 m/s 709 mmHg 66%
    08:00 +27°C° 0 mm 2 m/s 709 mmHg 58%
    09:00 +29°C° 0 mm 2 m/s 709 mmHg 51%
    10:00 +31°C° 0 mm 3 m/s 709 mmHg 44%
    11:00 +33°C° 0 mm 3 m/s 709 mmHg 37%
    12:00 +35°C° 0 mm 3 m/s 709 mmHg 34%
    13:00 +36°C° 0 mm 4 m/s 709 mmHg 31%
    14:00 +37°C° 0 mm 4 m/s 709 mmHg 27%
    15:00 +36°C° 0 mm 5 m/s 709 mmHg 32%
    16:00 +34°C° 0 mm 5 m/s 708 mmHg 37%
    17:00 +33°C° 0 mm 6 m/s 708 mmHg 41%
    18:00 +29°C° 0 mm 5 m/s 708 mmHg 51%
    19:00 +27°C° 0 mm 3 m/s 708 mmHg 60%
    20:00 +25°C° 0 mm 2 m/s 709 mmHg 70%
    21:00 +24°C° 0 mm 2 m/s 708 mmHg 72%
    22:00 +23°C° 0 mm 2 m/s 708 mmHg 74%
    23:00 +23°C° 0 mm 2 m/s 708 mmHg 76%
    Arată mai mult